When you browse on this site, cookies collect data to enhance your experience and personalize the content and advertising you see.
Visit our Privacy Policy to learn more. By continuing to use the site, you agree to this use of cookies and data.
  • In Deutschland
  • Länderverzeichnis
  • Für 7 Tage
  • Wassertemperatur
  • Wetterkarte
  • Widgets
  • user-avatar
    Anmelden

    Stündliche Wetter Parakou

    Heute, 26 Mai, Dienstag

    Zeit Temperatur Niederschläge Wind Luftdruck Luftfeuchtigkeit
    00:00 +26°C° 0 mm 1 m/S 728 mmHg 80%
    01:00 +26°C° 0 mm 1 m/S 728 mmHg 80%
    02:00 +25°C° 0 mm 1 m/S 728 mmHg 80%
    03:00 +25°C° 0 mm 1 m/S 727 mmHg 81%
    04:00 +25°C° 0 mm 1 m/S 727 mmHg 81%
    05:00 +25°C° 0 mm 2 m/S 728 mmHg 82%
    06:00 +25°C° 0 mm 2 m/S 728 mmHg 80%
    07:00 +27°C° 0 mm 1 m/S 728 mmHg 74%
    08:00 +28°C° 0 mm 1 m/S 729 mmHg 69%
    09:00 +30°C° 0 mm 1 m/S 729 mmHg 63%
    10:00 +32°C° 0 mm 1 m/S 729 mmHg 57%
    11:00 +35°C° 0 mm 1 m/S 729 mmHg 51%
    12:00 +35°C° 0 mm 0 m/S 729 mmHg 44%
    13:00 +35°C° 0 mm 0 m/S 728 mmHg 44%
    14:00 +36°C° 0 mm 1 m/S 727 mmHg 43%
    15:00 +36°C° 0 mm 1 m/S 726 mmHg 42%
    16:00 +35°C° 0.2 mm 2 m/S 726 mmHg 49%
    17:00 +32°C° 0.2 mm 2 m/S 726 mmHg 56%
    18:00 +31°C° 0.2 mm 3 m/S 726 mmHg 63%
    19:00 +29°C° 0.5 mm 2 m/S 727 mmHg 71%
    20:00 +28°C° 0.5 mm 1 m/S 727 mmHg 79%
    21:00 +26°C° 0.5 mm 1 m/S 728 mmHg 88%
    22:00 +27°C° 0.1 mm 1 m/S 728 mmHg 87%
    23:00 +27°C° 0.1 mm 1 m/S 728 mmHg 86%

    Morgen, 27 Mai, Mittwoch

    Zeit Temperatur Niederschläge Wind Luftdruck Luftfeuchtigkeit
    00:00 +27°C° 0.1 mm 1 m/S 728 mmHg 85%
    01:00 +27°C° 0 mm 1 m/S 728 mmHg 86%
    02:00 +26°C° 0 mm 1 m/S 727 mmHg 88%
    03:00 +26°C° 0 mm 1 m/S 727 mmHg 89%
    04:00 +26°C° 0 mm 1 m/S 727 mmHg 90%
    05:00 +26°C° 0 mm 1 m/S 727 mmHg 91%
    06:00 +25°C° 0 mm 1 m/S 728 mmHg 92%
    07:00 +27°C° 0 mm 1 m/S 728 mmHg 83%
    08:00 +30°C° 0 mm 2 m/S 729 mmHg 73%
    09:00 +32°C° 0 mm 2 m/S 729 mmHg 64%
    10:00 +32°C° 0 mm 1 m/S 729 mmHg 61%
    11:00 +33°C° 0 mm 1 m/S 728 mmHg 59%
    12:00 +31°C° 0 mm 0 m/S 728 mmHg 56%
    13:00 +33°C° 0 mm 1 m/S 727 mmHg 56%
    14:00 +33°C° 0 mm 1 m/S 726 mmHg 57%
    15:00 +33°C° 0 mm 1 m/S 725 mmHg 57%
    16:00 +32°C° 0 mm 1 m/S 725 mmHg 59%
    17:00 +31°C° 0 mm 1 m/S 726 mmHg 62%
    18:00 +31°C° 0 mm 1 m/S 726 mmHg 64%
    19:00 +30°C° 0.3 mm 1 m/S 726 mmHg 67%
    20:00 +29°C° 0.3 mm 1 m/S 727 mmHg 70%
    21:00 +28°C° 0.3 mm 1 m/S 728 mmHg 72%
    22:00 +28°C° 1.2 mm 1 m/S 728 mmHg 78%
    23:00 +27°C° 1.2 mm 1 m/S 728 mmHg 84%

    übermorgen, 28 Mai, Donnerstag

    Zeit Temperatur Niederschläge Wind Luftdruck Luftfeuchtigkeit
    00:00 +26°C° 1.2 mm 1 m/S 728 mmHg 90%
    01:00 +26°C° 2.6 mm 1 m/S 727 mmHg 91%
    02:00 +25°C° 2.6 mm 2 m/S 727 mmHg 92%
    03:00 +25°C° 2.6 mm 2 m/S 727 mmHg 93%
    04:00 +25°C° 0 mm 2 m/S 727 mmHg 92%
    05:00 +25°C° 0 mm 1 m/S 727 mmHg 91%
    06:00 +23°C° 0 mm 0 m/S 727 mmHg 90%
    07:00 +24°C° 0 mm 0 m/S 727 mmHg 88%
    08:00 +25°C° 0 mm 0 m/S 728 mmHg 85%
    09:00 +25°C° 0 mm 0 m/S 728 mmHg 82%
    10:00 +28°C° 0 mm 0 m/S 728 mmHg 71%
    11:00 +32°C° 0 mm 1 m/S 727 mmHg 61%
    12:00 +35°C° 0 mm 1 m/S 727 mmHg 50%
    13:00 +35°C° 0 mm 1 m/S 726 mmHg 47%
    14:00 +36°C° 0 mm 1 m/S 726 mmHg 45%
    15:00 +36°C° 0 mm 1 m/S 725 mmHg 42%
    16:00 +35°C° 0 mm 1 m/S 725 mmHg 47%
    17:00 +33°C° 0 mm 1 m/S 725 mmHg 52%
    18:00 +31°C° 0 mm 2 m/S 725 mmHg 57%
    19:00 +31°C° 0.1 mm 2 m/S 726 mmHg 60%
    20:00 +30°C° 0.1 mm 2 m/S 726 mmHg 64%
    21:00 +29°C° 0.1 mm 1 m/S 727 mmHg 67%
    22:00 +28°C° 0 mm 2 m/S 727 mmHg 70%
    23:00 +28°C° 0 mm 2 m/S 727 mmHg 74%

    29 Mai, Freitag

    Zeit Temperatur Niederschläge Wind Luftdruck Luftfeuchtigkeit
    00:00 +27°C° 0 mm 2 m/S 727 mmHg 77%
    01:00 +27°C° 0 mm 2 m/S 726 mmHg 80%
    02:00 +27°C° 0 mm 2 m/S 726 mmHg 83%
    03:00 +26°C° 0 mm 2 m/S 726 mmHg 87%
    04:00 +26°C° 0 mm 2 m/S 726 mmHg 88%
    05:00 +26°C° 0 mm 2 m/S 726 mmHg 90%
    06:00 +26°C° 0 mm 2 m/S 726 mmHg 92%
    07:00 +28°C° 0 mm 2 m/S 727 mmHg 84%
    08:00 +30°C° 0 mm 2 m/S 727 mmHg 76%
    09:00 +32°C° 0 mm 2 m/S 727 mmHg 67%
    10:00 +34°C° 0 mm 2 m/S 727 mmHg 61%
    11:00 +36°C° 0 mm 2 m/S 727 mmHg 54%
    12:00 +37°C° 0 mm 2 m/S 726 mmHg 48%
    13:00 +37°C° 0 mm 1 m/S 726 mmHg 45%
    14:00 +37°C° 0 mm 1 m/S 725 mmHg 43%
    15:00 +39°C° 0 mm 1 m/S 724 mmHg 40%
    16:00 +36°C° 0 mm 2 m/S 724 mmHg 49%
    17:00 +34°C° 0 mm 3 m/S 725 mmHg 58%
    18:00 +31°C° 0 mm 3 m/S 725 mmHg 67%
    19:00 +29°C° 0.5 mm 4 m/S 725 mmHg 73%
    20:00 +28°C° 0.5 mm 4 m/S 726 mmHg 80%
    21:00 +27°C° 0.5 mm 5 m/S 727 mmHg 86%
    22:00 +26°C° 0.3 mm 4 m/S 727 mmHg 88%
    23:00 +26°C° 0.3 mm 4 m/S 727 mmHg 90%

    30 Mai, Samstag

    Zeit Temperatur Niederschläge Wind Luftdruck Luftfeuchtigkeit
    00:00 +25°C° 0.3 mm 3 m/S 727 mmHg 92%
    01:00 +25°C° 0 mm 3 m/S 726 mmHg 92%
    02:00 +25°C° 0 mm 3 m/S 726 mmHg 92%
    03:00 +25°C° 0 mm 3 m/S 726 mmHg 92%
    04:00 +25°C° 0 mm 3 m/S 726 mmHg 91%
    05:00 +25°C° 0 mm 3 m/S 727 mmHg 90%
    06:00 +25°C° 0 mm 3 m/S 727 mmHg 89%
    07:00 +27°C° 0 mm 3 m/S 727 mmHg 81%
    08:00 +29°C° 0 mm 3 m/S 727 mmHg 73%
    09:00 +30°C° 0 mm 3 m/S 728 mmHg 65%
    10:00 +33°C° 0 mm 3 m/S 727 mmHg 59%
    11:00 +35°C° 0 mm 3 m/S 727 mmHg 53%
    12:00 +36°C° 0 mm 3 m/S 726 mmHg 47%
    13:00 +37°C° 0 mm 3 m/S 726 mmHg 46%
    14:00 +37°C° 0 mm 3 m/S 725 mmHg 46%
    15:00 +37°C° 0 mm 3 m/S 725 mmHg 45%
    16:00 +36°C° 0 mm 3 m/S 725 mmHg 52%
    17:00 +34°C° 0 mm 3 m/S 725 mmHg 59%
    18:00 +31°C° 0 mm 3 m/S 726 mmHg 66%
    19:00 +30°C° 0.3 mm 3 m/S 726 mmHg 69%
    20:00 +30°C° 0.3 mm 3 m/S 727 mmHg 73%
    21:00 +29°C° 0.3 mm 4 m/S 727 mmHg 77%
    22:00 +28°C° 0.7 mm 3 m/S 727 mmHg 82%
    23:00 +27°C° 0.7 mm 3 m/S 727 mmHg 86%

    31 Mai, Sonntag

    Zeit Temperatur Niederschläge Wind Luftdruck Luftfeuchtigkeit
    00:00 +26°C° 0.7 mm 3 m/S 727 mmHg 91%
    01:00 +26°C° 0 mm 3 m/S 727 mmHg 92%
    02:00 +25°C° 0 mm 2 m/S 727 mmHg 93%
    03:00 +25°C° 0 mm 2 m/S 727 mmHg 93%
    04:00 +25°C° 0 mm 2 m/S 727 mmHg 93%
    05:00 +25°C° 0 mm 2 m/S 728 mmHg 93%
    06:00 +25°C° 0 mm 2 m/S 728 mmHg 93%
    07:00 +26°C° 0 mm 3 m/S 728 mmHg 86%
    08:00 +28°C° 0 mm 3 m/S 728 mmHg 80%
    09:00 +29°C° 0 mm 3 m/S 729 mmHg 74%
    10:00 +31°C° 0 mm 3 m/S 729 mmHg 65%
    11:00 +34°C° 0 mm 3 m/S 728 mmHg 57%
    12:00 +36°C° 0 mm 2 m/S 728 mmHg 48%
    13:00 +37°C° 0 mm 2 m/S 728 mmHg 46%
    14:00 +37°C° 0 mm 2 m/S 727 mmHg 43%
    15:00 +38°C° 0 mm 2 m/S 726 mmHg 41%
    16:00 +36°C° 0 mm 2 m/S 726 mmHg 46%
    17:00 +35°C° 0 mm 2 m/S 726 mmHg 51%
    18:00 +32°C° 0 mm 2 m/S 726 mmHg 56%
    19:00 +31°C° 0 mm 2 m/S 727 mmHg 61%
    20:00 +30°C° 0 mm 2 m/S 727 mmHg 66%
    21:00 +29°C° 0 mm 3 m/S 727 mmHg 71%
    22:00 +29°C° 0 mm 2 m/S 727 mmHg 74%
    23:00 +28°C° 0 mm 2 m/S 728 mmHg 77%
    Mehr zeigen